Location: Long Geng
(2.6167°N, 114.1333°E)
Time: 12:15:53
(UTC+00:00)

Ariane 44LP R/B - Pass Details

Date: 23 September 2021
Orbit: 475 x 17834 km, 3.6° (Epoch: 27 October)

Event Time Altitude Azimuth Distance (km) Brightness Sun altitude
Rises 15:10:22 0° 264° (W) 11,124 10.1 -73.5°
Reaches altitude 10° 15:22:41 10° 262° (W) 7,097 9.0 -76.6°
Enters shadow 15:27:53 17° 260° (W) 5,124 8.2 -77.8°
